{"data":{"norad_id":40940,"intl_designator":"2015-054A","name":"SKY MUSTER 1 (NBN1A)","alt_names":[],"object_type":"PAYLOAD","status":"ACTIVE","operator":null,"country":"AUS","launch_date":"2015-09-30","launch_site_code":"FRGUI","launch_vehicle":null,"mission":null,"orbit_class":"UNKNOWN","rcs_meters":51.5754,"size_class":null,"mass_kg":null,"dimensions":null,"purposes":["comms"],"wikipedia_slug":null,"has_3d_model":false,"image_url":null,"decayed_at":null,"tle_current":{"epoch":"2026-05-25T04:24:28.440864Z","epoch_age_seconds":58487,"freshness":"FRESH","line1":"1 40940U 15054A   26145.18366251 -.00000280  00000+0  00000+0 0  9991","line2":"2 40940   0.0162 299.3930 0001829 116.5746  33.1850  1.00272598 39032","mean_motion":1.00272598,"eccentricity":0.0001829,"inclination_deg":0.0162,"raan_deg":299.393,"arg_perigee_deg":116.5746,"mean_anomaly_deg":33.185,"bstar":0,"rev_number":3903,"period_min":1436.0852603021,"perigee_km":35778.655161527,"apogee_km":35794.078937108,"semimajor_km":42164.504049318,"source":"CELESTRAK","updated_at":"2026-05-25T13:38:13.993762Z"}}}